COSMOS 789

Satellite information

Favourite Embed

Satellite Type and Status

PAYLOADIN ORBIT

Key statistics

Satellite COSMOS 789 at a glance.

Uptime

18067

Days in orbit

Revolutions

≈ 13.7

Per day

Orbit

LEO

Low Earth Orbit

Inclination

83.0

Latest

Satellite identification and parameters

Extended collection of information and parameters for COSMOS 789.

Object identification

Identified? True

Debris? False

Object name: COSMOS 789

International designator: 1976-005A

Object number (NORAD): 8591

Object ID (CCSDS): 8591

Country: COMMONWEALTH OF INDEPENDENT STATES (CIS)

Current information (Y/N): Y

RCS size: LARGE

Orbital parameters

Period: 104.867 minutes

Inclination: 82.9745 deg

SMA: 7366.343 km

Apoapsis: 1011.383 km

Periapsis: 965.033 km

RAAN: 99.3902 deg

Eccentricy: 0.003146

Argument of periapsis: 97.2749 deg

Mean anomaly: 329.2003 deg

Mean motion: 13.7317174 rev/day

Mean motion (dot): 0.00000034 rev/day2

B* drag term: 0.000019845 1/REarth

Two-line elements (TLE)

Creation date: July 6, 2025, 10:26 p.m.

Reference frame: TEME

Reference center: EARTH

Epoch: July 6, 2025, 8:45 p.m. UTC

TLE line 0: 0 COSMOS 789

TLE line 1: 1 8591U 76005A 25187.86522789 .00000034 00000-0 19845-4 0 9999

TLE line 2: 2 8591 82.9745 99.3902 0031460 97.2749 329.2003 13.73171740478017

Live tracking on map

Real-time ground track for satellite COSMOS 789.

In-orbit conjunctions

There are no conjunctions computed for COSMOS 789, at the moment. Check back to stay up to date, as we update our databases every day.

Go to all conjunctions

Associated space launch

Navigation satellite providing location information for the Tsiklon-B navigation system

COSMOS 789 was lifted into orbit during the mission ‘Kosmos-3M | Parus 5’, on board a Kosmos-3M space rocket.

The launch took place on Jan. 20, 1976, 5:07 p.m. from 132/1 (132L).

For more information about the launch, click the button.

Launch to space Kosmos-3M | Parus 5
Kosmos-3M | Parus 5

Agency: N/A

Status: Launch Successful

Launch date: Jan. 20, 1976, 5:07 p.m. UTC

Rocket: Kosmos-3M

Launch pad: 132/1 (132L)

Location: Plesetsk Cosmodrome, Russian Federation

...

Latest news about this satellite

There are no fresh news available about this satellite. Check back as we update our databases every day.


Newsletter sign-up

Weekly statistics, charts and insights to help you stay on top of the space industry.